Regional Weather Roundup
Issued by NWS Cleveland, OH

Home | Current Version | Previous Version | Graphics & Text | Print | Product List | Glossary On
Versions: 1 2 3 4 5 6 7 8 9 10 11 12 13 14 15 16 17 18 19 20 21 22 23 24 25 26 27 28 29 30 31 32 33 34 35 36 37 38 39 40 41 42 43 44 45 46 47 48 49 50
659
ASUS41 KCLE 240902
RWRCLE
OHIO REGIONAL WEATHER ROUNDUP
NATIONAL WEATHER SERVICE CLEVELAND, OH
500 AM EDT SUN JUL 24 2016

NOTE: "FAIR" INDICATES FEW OR NO CLOUDS BELOW 12,000 FEET WITH NO
SIGNIFICANT WEATHER AND/OR OBSTRUCTIONS TO VISIBILITY.

OHZ001>008-015>018-024>027-034-035-043-044-241000-
   NORTHWEST OHIO

CITY           SKY/WX    TMP DP  RH WIND       PRES   REMARKS
DEFIANCE       CLOUDY    80  72  76 NW8       29.97F
FINDLAY        CLOUDY    75  69  81 W6        29.99R
TOLEDO EXPRESS CLOUDY    74  71  91 CALM      29.98R
TOLEDO EXEC    CLOUDY    76  68  76 CALM      29.99R
LIMA           CLOUDY    75  73  93 W5        30.01R
$$

OHZ009>014-019>023-028>033-038-089-241000-
   NORTHEAST OHIO

CITY           SKY/WX    TMP DP  RH WIND       PRES   REMARKS
CLE-HOPKINS    PTCLDY    73  60  63 CALM      30.01S
CLE-LAKEFRONT  CLEAR     76  60  57 SE8       29.97F
CUY CO. ARPT   NOT AVBL
LORAIN-ELYRIA  PTCLDY    68  62  81 CALM      30.00S
ASHTABULA      CLEAR     62  62 100 CALM      30.02S
AKRON-CANTON   PTCLDY    72  60  66 SE3       30.02S
WOOSTER        PTCLDY    69  64  84 CALM      30.02F
MANSFIELD      PTCLDY    74  67  78 S6        30.02F
YOUNGSTOWN     PTCLDY    62  59  90 CALM      30.02S
$$

OHZ042-051>053-060>062-070>072-077>081-241000-
  SOUTHWEST OHIO

CITY           SKY/WX    TMP DP  RH WIND       PRES   REMARKS
CINC-COVINGTON CLOUDY    75  73  93 CALM      29.99F
CINC-LUNKEN    CLOUDY    73  73 100 CALM      29.98F
HAMILTON       CLOUDY    72  70  93 CALM      29.99S
DAYTON         MOCLDY    74  71  91 W3        30.02R
WRIGHT-PAT AFB MOCLDY    76  74  94 N2        30.00S
DAYTON GENERAL CLOUDY    75  70  84 CALM      30.00R
WILMINGTON     PTCLDY    74  72  93 CALM      30.00S
$$

OHZ036-037-039>041-045>050-054>059-063>069-073>076-082>088-241000-
  CENTRAL AND SOUTHEAST OHIO

CITY           SKY/WX    TMP DP  RH WIND       PRES   REMARKS
COLUMBUS       MOCLDY    75  72  90 CALM      29.99S
OSU AIRPORT    CLEAR     75  72  90 S3        29.99S
BOLTON FIELD   PTCLDY    71  71 100 CALM      30.00F FOG
RICKENBACK AFB PTCLDY    73  72  98 CALM      29.99S
NEWARK         CLEAR     71  69  93 CALM      30.00S FOG
MARION         PTCLDY    73  71  93 S6        30.00S
LANCASTER      MOCLDY    69  69 100 CALM      30.01R FOG
ZANESVILLE     CLEAR     74  70  87 CALM      30.00S
NEW PHILLY     MOCLDY    72  65  78 CALM      30.02S
$$




USA.gov is the U.S. government's official web portal to all federal, state and local government web resources and services.